OpenBCM V1.07b12 (Linux)

Packet Radio Mailbox

DB0FHN

[JN59NK Nuernberg]

 Login: GUEST





  
I0OJJ  > KEPS     24.02.25 06:08l 328 Lines 15588 Bytes #999 (0) @ AMSAT
BID : ORB25055.1
Read: DJ6UX GUEST
Subj: 2Line Orbital Elements 25055.AMSAT
Path: DB0FHN<DB0RKB<DK0WUE<PI8ZTM<I0OJJ
Sent: 250224/0345z @:I0OJJ.ITA.EU [Rome] obcm1.08-6-g5b69
From: I0OJJ @ I0OJJ.ITA.EU (Gustavo)
To:   KEPS @ AMSAT
X-Info: This message was generated automatically


QST de W1STR

AMSAT Orbital Elements for Amateur Satellites in TLE Format
From Orbital Analysis Office
New England Sci-Tech STEM Education Center
Natick, MA February 24, 2025
To all radio amateurs


These element sets describe the orbits of various satellites 
in use by the amateur radio community. For details see:
www.amsat.org/keplerian-elements-formats/

A daily update of element sets is available at:
www.amsat.org/tle/daily-bulletin.txt
or without bulletin text:
www.amsat.org/tle/dailytle.txt


AO-07
1 07530U 74089B   25054.26356088 -.00000010  00000-0  23059-3 0  9991
2 07530 101.9942  57.3927 0012029 326.1646  45.5208 12.53686424300747
UO-11
1 14781U 84021B   25054.83698731  .00003778  00000-0  40962-3 0  9996
2 14781  97.7403  23.4212 0007076 338.4900  21.6019 14.88759079206908
AO-27
1 22825U 93061C   25054.76021934  .00000297  00000-0  13068-3 0  9995
2 22825  98.7522 115.7222 0009353  66.6731 293.5434 14.30734983638855
FO-29
1 24278U 96046B   25054.72764021  .00000019  00000-0  57921-4 0  9991
2 24278  98.5864 322.4992 0348905 256.7730  99.4275 13.53238293408709
NOAA-15
1 25338U 98030A   25054.79007755  .00000411  00000-0  18710-3 0  9993
2 25338  98.5473  82.4115 0009349 312.9554  47.0842 14.26891231393315
GO-32
1 25397U 98043D   25054.82555365  .00000285  00000-0  14366-3 0  9993
2 25397  98.9588  31.8033 0001989 124.7390 235.3975 14.24259299383450
ISS
1 25544U 98067A   25054.51085640  .00023450  00000-0  42741-3 0  9990
2 25544  51.6356 150.0555 0006025 305.2382  54.8042 15.49327467497534
NO-44
1 26931U 01043C   25053.69281022  .00000522  00000-0  22667-3 0  9999
2 26931  67.0507  44.1784 0005938 265.0428  94.9996 14.31627539221808
SO-50
1 27607U 02058C   25054.69991672  .00003195  00000-0  42285-3 0  9994
2 27607  64.5546 167.2317 0043792   0.4464 359.6672 14.81010291193754
CO-55
1 27844U 03031E   25053.73204738  .00000795  00000-0  36619-3 0  9990
2 27844  98.6793  63.3774 0010516 133.3636 226.8421 14.23833140123434
CO-57
1 27848U 03031J   25054.54519754  .00000743  00000-0  34785-3 0  9996
2 27848  98.6823  64.2642 0010199 146.7487 213.4334 14.23193455123337
RS-22
1 27939U 03042A   25054.85090407  .00003132  00000-0  50897-3 0  9999
2 27939  98.3151 221.8387 0011334 349.7094 116.2007 14.71815528145276
NOAA-18
1 28654U 05018A   25054.80273502  .00000407  00000-0  23929-3 0  9991
2 28654  98.8497 135.4498 0015048  72.1406 288.1406 14.13523685 18808
CO-58
1 28895U 05043F   25054.38325610  .00004415  00000-0  73948-3 0  9996
2 28895  98.2298 197.5619 0013923 283.8754  76.0902 14.70235132 31562
CO-65
1 32785U 08021C   25054.52650296  .00012189  00000-0  92296-3 0  9999
2 32785  97.7728  25.1163 0009613 203.8265 156.2516 15.02409244913213
AAUSAT2
1 32788U 08021F   25054.45733013  .00129885  00000-0  22862-2 0  9996
2 32788  97.6063  46.6192 0005609  74.9390 285.2481 15.49968731916853
CO-66
1 32791U 08021J   25054.42944390  .00023425  00000-0  12788-2 0  9998
2 32791  97.7186  32.4704 0005557 144.1829 215.9776 15.14324684914484
RS-30
1 32953U 08025A   25054.81313936  .00000047  00000-0  27109-3 0  9990
2 32953  82.5017 292.9792 0018713 277.6062  82.2892 12.43159247760380
NOAA-19
1 33591U 09005A   25054.79189073  .00000335  00000-0  20276-3 0  9996
2 33591  99.0115 118.8481 0012856 304.4253  55.5703 14.13292249827168
SRMSAT
1 37841U 11058D   25054.40131534  .00000661  00000-0  21590-3 0  9998
2 37841  19.9722  77.0515 0011659 338.1640  49.7887 14.11368075690315
ZACUBE-1
1 39417U 13066B   25054.83145990  .00012399  00000-0  11202-2 0  9997
2 39417  97.7676  12.6115 0047517  47.3168 313.2040 14.94741173609107
Delfi-N3xt
1 39428U 13066N   25054.33123146  .00018646  00000-0  19999-2 0  9995
2 39428  97.8372 333.3424 0088792 351.4009   8.5680 14.85773272603464
GOMX-1
1 39430U 13066Q   25054.85667857  .00004567  00000-0  72160-3 0  9994
2 39430  97.6991 279.9612 0134215 170.0860 190.3043 14.66884553599908
LO-74
1 39440U 13066AA  25054.11590804  .00007410  00000-0  77744-3 0  9994
2 39440  97.8386 359.5976 0064352 169.2895 190.9710 14.88271942606798
AO-73
1 39444U 13066AE  25054.43116516  .00017759  00000-0  14217-2 0  9999
2 39444  97.7508  16.3028 0042873  26.5545 333.7861 14.99495586608255
DTUSAT-2
1 40030U 14033W   25054.46410992  .00015656  00000-0  10870-2 0  9990
2 40030  98.0421  21.4148 0011681  64.8952 295.3484 15.05603514580923
EO-80
1 40032U 14033Y   25054.42371428  .00015537  00000-0  10762-2 0  9996
2 40032  98.0326  21.1722 0009331  16.8930 343.2605 15.05711265580905
XW-2C
1 40906U 15049H   25047.62605869  .06460715  25777-5  82494-3 0  9990
2 40906  97.4284  83.7622 0006300 238.5188 121.5494 16.35922890522636
LILACSAT-2
1 40908U 15049K   25054.76980073  .00018746  00000-0  54947-3 0  9994
2 40908  97.5163  72.7687 0010410 168.2058 191.9431 15.35195693521976
IO-86
1 40931U 15052B   25038.81889873  .00001817  00000-0  15548-3 0  9993
2 40931   6.0001 108.1159 0012838 187.7041 172.2889 14.78568669506492
Horyu-4
1 41340U 16012D   25054.40826371  .00034189  00000-0  11319-2 0  9991
2 41340  30.9997 122.6336 0006473  50.2323 309.8890 15.30096697496472
Lapan A3
1 41603U 16040E   25054.83031131  .00006880  00000-0  24935-3 0  9999
2 41603  97.1399  63.6557 0009325 290.1299  69.8938 15.28627416481623
CAS-2T
1 41847U 16066G   25054.12811983  .00003683  00000-0  53099-3 0  9991
2 41847  98.4306 129.5065 0348718 140.3270 222.3999 14.42994055435665
CAS-4B
1 42759U 17034B   25054.81297125  .00063139  00000-0  11498-2 0  9990
2 42759  43.0092 225.4298 0018268 272.1244  87.7524 15.48449834426124
CAS-4A
1 42761U 17034D   25054.83995088  .00065301  00000-0  11658-2 0  9999
2 42761  43.0129 223.1860 0019527 278.0082  81.8562 15.48975075426142
TechnoSat
1 42829U 17042E   25054.72914247  .00007017  00000-0  56130-3 0  9994
2 42829  97.3887 228.5499 0011825 286.2529  73.7394 15.00439012414848
AO-91
1 43017U 17073E   25054.17586730  .00013662  00000-0  73443-3 0  9998
2 43017  97.5486 287.7116 0181426 168.0382 192.5241 15.01878843393226
S-Net D
1 43186U 18014G   25054.67754220  .00010691  00000-0  66155-3 0  9998
2 43186  97.5722 318.7352 0008151 221.2202 138.8413 15.09966889386388
S-Net B
1 43187U 18014H   25054.68167846  .00010807  00000-0  66885-3 0  9991
2 43187  97.5728 318.7055 0008987 216.2520 143.8101 15.09950657386385
S-Net A
1 43188U 18014J   25054.67826233  .00010741  00000-0  66448-3 0  9995
2 43188  97.5737 318.8389 0008828 217.1554 142.9065 15.09970634386384
S-Net C
1 43189U 18014K   25054.68383526  .00010715  00000-0  66302-3 0  9990
2 43189  97.5749 318.8408 0010590 210.2290 149.8330 15.09946986384933
Ten-Koh
1 43677U 18084G   25053.87514436  .00006745  00000-0  55399-3 0  9997
2 43677  98.0870 221.8904 0010009 261.3610  98.6479 14.99499560344242
PO-101
1 43678U 18084H   25054.91272563  .00003664  00000-0  32053-3 0  9995
2 43678  98.0944 227.1044 0007661 281.2034  78.8325 14.97390147344564
QO-100
1 43700U 18090A   25054.27266878  .00000151  00000-0  00000+0 0  9990
2 43700   0.0160 138.2130 0001236 229.0144 270.1238  1.00270272 23116
MinXSS-2
1 43758U 18099A   25054.12297116  .00024752  00000-0  11277-2 0  9999
2 43758  97.5176 120.1045 0013591 166.8543 193.3049 15.20577275340769
AO-95
1 43770U 18099N   25054.70237440  .00016724  00000-0  92078-3 0  9990
2 43770  97.5087 114.0912 0010993 214.4553 145.5967 15.14052154340511
RANGE-A
1 43773U 18099R   25054.12717689  .00008239  00000-0  54770-3 0  9996
2 43773  97.4663 105.6378 0011522 189.3219 170.7797 15.07374175340178
MOVE-II
1 43780U 18099Y   25054.41391119  .00094938  00000-0  21036-2 0  9991
2 43780  97.4818 124.8632 0004320 177.9100 182.2166 15.43403842341278
SNUSat 2
1 43782U 18099AA  25054.68992572  .00014118  00000-0  82498-3 0  9994
2 43782  97.4777 111.6530 0013412 155.2766 204.9110 15.11925746340484
SnugLite
1 43784U 18099AC  25054.42399492  .00017801  00000-0  97285-3 0  9992
2 43784  97.4589 110.7765 0004428 150.8979 209.2500 15.14344555340556
ITASat 1
1 43786U 18099AE  25054.72254760  .00010953  00000-0  66411-3 0  9993
2 43786  97.4733 111.4788 0014675 207.0510 152.9956 15.10636378340465
EAGLET 1
1 43790U 18099AJ  25054.67619016  .00008117  00000-0  53784-3 0  9999
2 43790  97.4937 111.6898 0012419 185.4234 174.6861 15.07488871340102
ESEO
1 43792U 18099AL  25054.09892153  .00003928  00000-0  30487-3 0  9992
2 43792  97.4588 105.7566 0011128 157.6994 202.4717 15.01864597339837
CSIM
1 43793U 18099AM  25054.46438728  .00100483  00000-0  22087-2 0  9998
2 43793  97.4997 126.9157 0006977 152.7682 207.3932 15.43605468341123
JO-97
1 43803U 18099AX  25054.20730402  .00020357  00000-0  10324-2 0  9998
2 43803  97.4831 114.4196 0008851 150.7979 209.3750 15.16938480340624
Suomi 100
1 43804U 18099AY  25054.13542821  .00015719  00000-0  84028-3 0  9996
2 43804  97.4901 113.9028 0013985 154.4029 205.7898 15.15085056340569
ISAT
1 43879U 18111D   25054.74068434  .00030100  00000-0  12523-2 0  9994
2 43879  97.6033 327.2145 0008969 194.6703 165.4275 15.23680779335523
UWE-4
1 43880U 18111E   25054.81170998  .00025226  00000-0  11380-2 0  9996
2 43880  97.5970 326.4091 0011827 211.5875 148.4651 15.20933487335524
Sparrow
1 43881U 18111F   25054.73205347  .00032227  00000-0  13050-2 0  9990
2 43881  97.6150 329.7140 0005420 240.7739 119.2956 15.24600745335629
Prox-1
1 44339U 19036A   25054.04267044  .00018595  00000-0  25789-2 0  9996
2 44339  23.9987  39.9138 0007224 293.5410  66.4327 14.76368895302320
SONATE
1 44400U 19038Q   25054.57321072  .00082798  00000-0  10053-2 0  9991
2 44400  97.7093  70.1809 0006261 278.1238  81.9308 15.60303213312896
